Current Version              Previous Version:    01  02  03  04  05  06  07  08  09  10  11  12  13  14  15  16  17  18  19  20  21  22  23  24  25  26  27  28  29  30  
   31  32  33  34  35  36  37  38  39  40  41  42  43  44  45  46  47  48  49  50  51  52  53  54  55  56  57  58  59  60  

[Printable]
953
ASUS44 KFWD 252010
RWRTX
NORTH TEXAS HOURLY WEATHER ROUNDUP
NATIONAL WEATHER SERVICE FORT WORTH TX
300 PM CDT SAT OCT 25 2014

NOTE: "FAIR" INDICATES FEW OR NO CLOUDS BELOW 12,000 FEET WITH NO
SIGNIFICANT WEATHER AND/OR OBSTRUCTIONS TO VISIBILITY.

TXZ118-119-252100-
DALLAS/FORT WORTH METROPLEX

CITY           SKY/WX    TMP DP  RH WIND       PRES   REMARKS
DFW AIRPORT    SUNNY     86  61  42 SW9       30.08F
DALLAS LOVE    SUNNY     86  61  42 S7        30.08F
FTW MEACHAM    SUNNY     88  61  40 S7        30.07F
DAL-EXECUTIVE  SUNNY     88  60  38 S5        30.08F
FTW-ALLIANCE   SUNNY     88  60  38 VRB7      30.07F
FTW-NAS-JRB    SUNNY     91  58  32 VRB5      30.11F HX  90
FTW-SPINKS     SUNNY     88  59  37 S6        30.10F
ARLINGTON      SUNNY     87  60  40 VRB5      30.08F
GRAND PRAIRIE  SUNNY     86  63  45 MISG        N/A
ADDISON        SUNNY     86  59  39 CALM      30.09F
MESQUITE       SUNNY     86  57  37 S5        30.08F
LANCASTER      SUNNY     86  58  38 S6        30.09F
$$

TXZ091>094-102>105-117-120-121-131>134-252100-
NORTH CENTRAL TEXAS

CITY           SKY/WX    TMP DP  RH WIND       PRES   REMARKS
SHRMAN/DENISON SUNNY     86  65  48 SW7       30.08F
GAINESVILLE    SUNNY     87  61  41 S6        30.09F
BOWIE          SUNNY     88  58  35 SW6       30.08F
BRIDGEPORT     SUNNY     90  59  35 S5        30.09F
DECATUR        SUNNY     87  56  34 CALM      30.09F
DENTON         SUNNY     87  61  41 VRB6      30.07F
MCKINNEY       SUNNY     86  60  41 W5        30.08F
ROCKWALL       SUNNY     86  62  45 S5        30.07F
TERRELL        SUNNY     86  62  44 SW8       30.09F
WAXAHACHIE     SUNNY     86  62  43 CALM      30.10F
CLEBURNE       SUNNY     88  61  40 CALM      30.10F
GRANBURY       SUNNY     89  57  34 S7        30.09F
$$

TXZ083>090-098>101-113>116-127>130-139>142-154-155-252100-
WESTERN NORTH TEXAS

CITY           SKY/WX    TMP DP  RH WIND       PRES   REMARKS
WICHITA FALLS  SUNNY     90  56  31 SW9       30.05F
WF-KICKAPOO    SUNNY     90  53  28 S6        30.07F
VERNON         SUNNY     91  52  25 S8        30.06F
ABILENE        SUNNY     88  52  29 S14       30.11F
ABILENE-DYESS  SUNNY     89  51  27 S12       30.09F
BRECKENRIDGE   SUNNY     91  51  25 SW8       30.08F HAZE
GRAHAM         SUNNY     91  58  33 SW6       30.06F
MINERAL WELLS  SUNNY     89  57  33 S8        30.07F
STEPHENVILLE   SUNNY     87  55  34 SW7       30.13F
COMANCHE       SUNNY     87  58  37 SW6       30.11F
BROWNWOOD      SUNNY     86  55  35 S8        30.11F
COLEMAN        SUNNY     88  55  31 SW10      30.11F
BRADY          SUNNY     88  54  31 S9        30.12F
$$

TXZ143>147-156>162-174-175-252100-
CENTRAL TEXAS

CITY           SKY/WX    TMP DP  RH WIND       PRES   REMARKS
WACO           SUNNY     86  61  42 SE6       30.09F
WACO-TSTC      SUNNY     86  61  42 SW7       30.10F
WACO-MCGREGOR  SUNNY     88  61  40 SE3       30.10F
HILLSBORO      SUNNY     87  58  38 S8        30.10F
CORSICANA      SUNNY     86  60  41 VRB6      30.10F
MEXIA          SUNNY     84  62  48 SW3       30.10F
HEARNE         SUNNY     84  62  46 CALM      30.11F
CAMERON        SUNNY     87  61  42 SW7       30.10F
TEMPLE         SUNNY     84  61  45 SW8       30.10F
KILLEEN        SUNNY     85  59  40 SE6       30.11F
KILLEEN-SKYLRK SUNNY     88  61  40 SW8       30.09F
FORT HOOD      SUNNY     89  61  38 CALM      30.10F
GATESVILLE     SUNNY     88  59  37 S6        30.12F
HAMILTON       SUNNY     87  54  31 SW9       30.12F
LAMPASAS       SUNNY     84  61  45 S3        30.11F
$$

TXZ095>097-106>112-122>126-135>138-148>153-164>167-252100-
EAST TEXAS

CITY           SKY/WX    TMP DP  RH WIND       PRES   REMARKS
PARIS          SUNNY     84  61  45 SW3       30.08F
SULPHUR SPRNGS SUNNY     86  60  41 SW7       30.10F
MOUNT PLEASANT SUNNY     84  61  44 SW8       30.10F
MINEOLA        SUNNY     84  61  45 S3        30.09F
TYLER          SUNNY     85  61  44 SW9       30.10F
LONGVIEW       SUNNY     84  62  47 SW8       30.09F
MARSHALL       SUNNY     86  64  48 SW3       30.11F
ATHENS         SUNNY     82  61  47 SW6       30.09F
PALESTINE      SUNNY     83  62  48 SW3       30.12F
JACKSONVILLE   SUNNY     82  61  47 SW3       30.14F
HENDERSON      SUNNY     82  61  48 S5        30.11F
NACOGDOCHES    SUNNY     81  63  54 W5        30.11F
LUFKIN         SUNNY     85  61  44 SW3       30.11F
$$

SUPPLEMENTAL OBSERVATIONS (CENTRAL)

CITY           SKY/WX    TMP DP  RH WIND       PRES   REMARKS
CADDO GRASSLND   N/A    N/A N/A N/A W5          N/A
PAT MAYSE LAKE   N/A     84  59  42 S1          N/A
GREENVILLE       N/A     88  59  37 SW7         N/A
CEDAR HILL       N/A     90  59  35 SW3         N/A
MCGREGOR         N/A     90  59  35 SW7         N/A
$$

SUPPLEMENTAL OBSERVATIONS (WEST)

CITY           SKY/WX    TMP DP  RH WIND       PRES   REMARKS
MILLERS CREEK    N/A     90  61  37 S7          N/A
LBJ GRASSLAND    N/A     90  57  33 S5          N/A
GRANBURY         N/A     90  57  33 S7          N/A
HAMBY            N/A     90  52  27 SW14G23     N/A
IVIE RESERVOIR   N/A     90  50  25 S9          N/A
COLORADO BEND    N/A     84  55  37 S8          N/A
$$

SUPPLEMENTAL OBSERVATIONS (EAST)

CITY           SKY/WX    TMP DP  RH WIND       PRES   REMARKS
HENDERSON        N/A     84  61  45 SW6G15      N/A
LUFKIN           N/A     86  63  45 MISG        N/A
N SABINE NF      N/A     86  59  39 MISG        N/A
$$

SUPPLEMENTAL OBSERVATIONS ARE A COLLECTION OF AUTOMATED INSTRUMENTS
THAT ARE MAINTAINED BY A VARIETY OF FEDERAL AND STATE AGENCIES.
CERTAIN ELEMENTS...SUCH AS HUMIDITY VALUES AND SUSTAINED WIND
SPEEDS...MAY BE APPROXIMATED.